Find Starlink 3789

NORAD ID: 52283 Int'l Des: 2022-041 Owner: SPXS Country: US Constellation: starlink operational
LEOCIRCULAR

現在のビュー

3D地球を読み込み中...

About Starlink 3789

Starlink 3789 (NORAD 52283) is a starlink constellation satellite (v1.5) launched Apr 21, 2022 by SPXS of US. It operates in LEO, CIRCULAR orbit with a mass of 297.00 kg.

Starlink 3789について

説明を読み込み中...

次回通過

Passes for default location (London). Set your location on the main map for personalized predictions.

高度履歴

Loading altitude history...

軌道要素

1 52283U 22041Y 26170.87251783 .00000570 00000-0 53932-4 0 9994
2 52283 53.1614 10.2887 0001419 89.1000 271.0154 15.08835310229794
Epoch: Jun 19, 2026 • Age: 44 hours

現在のステータス

高度 540.1 km
速度 7.59 km/s
衛星直下点 3.65°N, 19.92°E
打ち上げ日 Apr 21, 2022
運用期間 4.1 years
タイプ internet

技術仕様

分類 Payload
質量 297.00 kg
乾燥質量 275.00 kg
総質量 297.00 kg
長さ 0.20 m
直径 2.80 m
スパン 9.00 m
形状 Box + pan
製造者 SPXS
バスタイプ Starlink
フェーズステータス In Orbit
所有者/国 SPXS/US

Most Searched